This is the latest recevied weather packets stored in our database for station/object SV9TNF-2. If no packets are shown the sender has not sent any weather packets the latest 10 day(s).
| Time | Temp. | Humidity | Pressure | Rain* | Wind** | Luminosity | Snow |
|---|---|---|---|---|---|---|---|
| 1777211427 | 23.33° C | 57% | 1020.7 hPa | 0 mm | 2.68 m/s, 242° | - | - |
| 1777211126 | 22.78° C | 58% | 1020.7 hPa | 0 mm | 4.02 m/s, 281° | - | - |
| 1777210826 | 23.33° C | 59% | 1020.7 hPa | 0 mm | 2.24 m/s, 106° | - | - |
| 1777210526 | 22.78° C | 57% | 1020.7 hPa | 0 mm | 4.92 m/s, 253° | - | - |
| 1777210226 | 22.78° C | 58% | 1020.7 hPa | 0 mm | 3.58 m/s, 350° | - | - |
| 1777209926 | 23.33° C | 56% | 1020.7 hPa | 0 mm | 3.13 m/s, 248° | - | - |
| 1777209626 | 23.89° C | 53% | 1020.3 hPa | 0 mm | 5.36 m/s, 284° | - | - |
| 1777209326 | 23.89° C | 54% | 1020.3 hPa | 0 mm | 4.92 m/s, 126° | - | - |
| 1777209026 | 23.33° C | 54% | 1020.7 hPa | 0 mm | 5.36 m/s, 250° | - | - |
| 1777208726 | 23.33° C | 54% | 1020.7 hPa | 0 mm | 2.68 m/s, 264° | - | - |
| 1777208426 | 23.89° C | 53% | 1020.3 hPa | 0 mm | 5.81 m/s, 288° | - | - |
| 1777208125 | 23.33° C | 55% | 1020.3 hPa | 0 mm | 4.02 m/s, 261° | - | - |
| 1777207825 | 23.33° C | 53% | 1020.3 hPa | 0 mm | 3.58 m/s, 267° | - | - |
| 1777207525 | 23.33° C | 53% | 1020.7 hPa | 0 mm | 4.47 m/s, 289° | - | - |
| 1777207226 | 22.78° C | 54% | 1020.7 hPa | 0 mm | 7.15 m/s, 342° | - | - |
| 1777206925 | 23.33° C | 53% | 1020.7 hPa | 0 mm | 5.81 m/s, 233° | - | - |
| 1777206625 | 23.33° C | 55% | 1020.7 hPa | 0 mm | 2.68 m/s, 238° | - | - |
| 1777206325 | 22.22° C | 57% | 1020.7 hPa | 0 mm | 4.02 m/s, 344° | - | - |
| 1777206025 | 22.22° C | 58% | 1020.7 hPa | 0 mm | 3.13 m/s, 354° | - | - |
| 1777205725 | 22.78° C | 59% | 1020.7 hPa | 0 mm | 6.71 m/s, 247° | - | - |
| 1777205425 | 23.33° C | 57% | 1021 hPa | 0 mm | 4.47 m/s, 232° | - | - |
| 1777205124 | 22.78° C | 56% | 1021 hPa | 0 mm | 3.13 m/s, 29° | - | - |
| 1777204825 | 22.78° C | 54% | 1020.7 hPa | 0 mm | 5.81 m/s, 241° | - | - |
| 1777204524 | 23.33° C | 56% | 1020.7 hPa | 0 mm | 3.13 m/s, 269° | - | - |
| 1777204224 | 23.89° C | 54% | 1020.7 hPa | 0 mm | 4.02 m/s, 243° | - | - |
* Rain latest hour (hover to see other rain measurements)
** Current wind speed in m/s (hover to see current wind gust speed)